Regional Weather Roundup
Issued by NWS

Home | Current Version | Previous Version | Text Only | Print | Product List | Glossary Off
Versions: 1 2 3 4 5 6 7 8 9 10 11 12 13 14 15 16 17 18 19 20 21 22 23 24 25 26 27 28 29 30 31 32 33 34 35 36 37 38 39 40 41 42 43 44 45 46 47 48 49 50

000
ASUS43 KFSD 271410
RWRSD

WEATHER ROUNDUP FOR SOUTH DAKOTA
NATIONAL WEATHER SERVICE SIOUX FALLS SD
800 AM CST TUE JAN 27 2015

NOTE: "FAIR" INDICATES FEW OR NO CLOUDS BELOW 12,000 FEET WITH NO
SIGNIFICANT WEATHER AND/OR OBSTRUCTIONS TO VISIBILITY.


SDZ001>005-009-010-012>017-271500-
NORTHWEST AND NORTH CENTRAL SOUTH DAKOTA

CITY           SKY/WX    TMP DP  RH WIND       PRES   REMARKS
BUFFALO          N/A     41  28  60 W12       29.85S
FAITH            N/A     41  29  62 SW9       29.90S
MOBRIDGE       CLEAR     30  27  88 SE8       29.92R WCI  22
$$

SDZ012>016-024>037-041>051-057-063-072>074-271500-
SOUTHWEST AND SOUTH CENTRAL SOUTH DAKOTA

CITY           SKY/WX    TMP DP  RH WIND       PRES   REMARKS
RAPID CTY ARPT CLEAR     45  25  45 NW10      29.95R
PIERRE         PTCLDY    31  28  89 SE8       29.94S WCI  23
CUSTER         CLEAR     45  19  35 W8        30.07R
ELLSWORTH AFB  PTCLDY    40  26  57 W7        29.95R
PHILIP         CLEAR     33  27  78 W6        29.93S WCI  28
PINE RIDGE     CLEAR     43  27  53 SW8       30.00S
SPEARFISH      FAIR      46  25  42 SW5       29.99R
WINNER         FAIR      36  29  75 S5        29.96R
$$

SDZ004>011-016>023-039-040-271500-
NORTHEAST SOUTH DAKOTA

CITY           SKY/WX    TMP DP  RH WIND       PRES   REMARKS
ABERDEEN       MOCLDY    28  25  88 SE7       30.02F WCI  21
WATERTOWN      CLEAR     26  24  92 S6        30.04R WCI  19
SISSETON         N/A     28  28 100 S10       30.07R WCI  19
$$

SDZ017-020-022-023-036>040-048>070-271500-
SOUTHEAST SOUTH DAKOTA

CITY           SKY/WX    TMP DP  RH WIND       PRES   REMARKS
SIOUX FALLS    FOG       28  27  96 E7        30.09R VSB 1/8 WCI  21
HURON          CLEAR     29  27  92 SE7       30.04R WCI  22
CHAMBERLAIN    CLEAR     32  30  92 SE10      29.98S WCI  24
MITCHELL       CLEAR     31  29  92 SE9       30.06R WCI  23
YANKTON        FAIR      27  25  93 E3        30.09R
$$

ABBREVIATIONS USED IN REMARKS
   TC - TEMPERATURE IN CELSIUS
  WCI - WIND CHILL INDEX
   HX - HEAT INDEX
  VSB - VISIBILITY



USA.gov is the U.S. government's official web portal to all federal, state and local government web resources and services.